GW2967 Weather Reports


Display with metric or nautical units.
time (UTC)temp
F
wind
direction
speed
MPH
gust
MPH
rain 1hr
in
rain 24hr
in
rain mn
in
humidity
%
barometer
mb
20260506001536 72 0 0.0 3.0 0.00 0.02 0.02 37 1007.8
20260506000032 73 0 0.0 3.0 0.00 0.02 0.02 34 1007.8
20260505234535 74 0 1.0 3.0 0.00 0.02 0.02 33 1007.7
20260505233028 75 0 1.0 7.0 0.00 0.02 0.02 32 1007.6
20260505231532 75 0 0.0 6.0 0.00 0.02 0.02 30 1007.6
20260505230048 76 210 1.0 5.0 0.00 0.02 0.02 28 1007.4
20260505224530 76 237 1.0 10.0 0.00 0.02 0.02 26 1007.3
20260505223030 77 269 1.0 9.0 0.00 0.02 0.02 27 1007.2
20260505221534 77 98 2.0 7.0 0.00 0.02 0.02 26 1007.2
20260505220027 77 207 0.0 9.0 0.00 0.02 0.02 26 1007.1
20260505214532 77 212 0.0 6.0 0.00 0.02 0.02 28 1007.0
20260505213048 78 271 1.0 7.0 0.00 0.02 0.02 27 1007.1
20260505211528 78 248 2.0 7.0 0.00 0.02 0.02 25 1006.9
20260505210030 79 245 3.0 10.0 0.00 0.02 0.02 25 1006.8
20260505204530 81 219 2.0 9.0 0.00 0.02 0.02 25 1006.8
20260505203041 81 271 3.0 9.0 0.00 0.02 0.02 22 1006.9
20260505201530 81 236 3.0 9.0 0.00 0.02 0.02 22 1006.9
20260505200035 82 218 2.0 6.0 0.00 0.02 0.02 22 1006.9
20260505194528 82 257 3.0 10.0 0.00 0.02 0.02 23 1006.9
20260505193028 82 303 3.0 10.0 0.00 0.02 0.02 23 1007.5
20260505191532 81 217 3.0 13.0 0.00 0.02 0.02 25 1007.5
20260505190032 81 212 3.0 9.0 0.00 0.02 0.02 25 1007.5
20260505184530 81 143 2.0 8.0 0.00 0.02 0.02 27 1007.8
20260505183027 80 147 3.0 11.0 0.00 0.02 0.02 28 1008.0
20260505181530 81 211 3.0 13.0 0.00 0.02 0.02 26 1008.2
20260505180030 81 214 2.0 7.0 0.00 0.02 0.02 27 1008.2
20260505174531 80 211 3.0 6.0 0.00 0.02 0.02 27 1008.3
20260505173040 80 301 3.0 10.0 0.00 0.02 0.02 26 1008.6
20260505171528 81 262 3.0 12.0 0.00 0.02 0.02 29 1008.7
20260505170029 80 197 3.0 9.0 0.00 0.02 0.02 32 1008.7
20260505164546 80 143 2.0 6.0 0.00 0.02 0.02 31 1008.8
20260505163028 80 217 2.0 6.0 0.00 0.02 0.02 36 1009.0
20260505161530 78 264 2.0 7.0 0.00 0.02 0.02 33 1009.2
20260505153044 76 165 1.0 8.0 0.00 0.02 0.02 39 1009.7
20260505124531 63 0 0.0 1.0 0.00 0.02 0.02 53 1010.5
20260505123030 62 151 0.0 0.0 0.00 0.02 0.02 55 1010.3
20260505121531 60 0 0.0 0.0 0.00 0.02 0.02 59 1010.6
20260505120030 58 0 0.0 1.0 0.00 0.02 0.02 61 1010.6
20260505114537 57 0 0.0 1.0 0.00 0.02 0.02 64 1010.7
20260505113029 54 0 0.0 1.0 0.00 0.02 0.02 66 1010.4
20260505111533 52 0 0.0 0.0 0.00 0.02 0.02 69 1010.2
20260505101532 48 0 0.0 1.0 0.00 0.02 0.02 67 1010.1
20260505100041 48 0 0.0 0.0 0.00 0.02 0.02 67 1010.0
20260505094531 48 0 0.0 0.0 0.01 0.02 0.02 67 1009.7
20260505093033 49 0 0.0 0.0 0.02 0.02 0.02 68 1009.6
20260505091527 49 0 0.0 0.0 0.02 0.02 0.02 69 1009.4
20260505090048 50 0 0.0 0.0 0.02 0.02 0.02 71 1009.4
20260505084536 50 0 0.0 0.0 0.01 0.01 0.01 71 1009.5
20260505083040 50 0 0.0 0.0 0.00 0.00 0.00 69 1010.1
20260505081548 50 0 0.0 0.0 0.00 0.00 0.00 68 1010.2
20260505080038 49 0 0.0 0.0 0.00 0.00 0.00 67 1009.7
20260505074527 49 0 0.0 0.0 0.00 0.00 0.00 68 1009.5
20260505073030 49 0 0.0 0.0 0.00 0.00 0.00 67 1009.2
20260505071531 49 0 0.0 0.0 0.00 0.00 0.00 65 1009.3
20260505070031 49 0 0.0 0.0 0.00 0.00 0.00 66 1009.4
20260505064527 50 0 0.0 0.0 0.00 0.00 0.00 65 1009.4
20260505063035 51 0 0.0 0.0 0.00 0.00 0.00 64 1009.4
20260505061532 51 0 0.0 1.0 0.00 0.00 0.00 62 1009.5
20260505060028 51 0 0.0 0.0 0.00 0.00 0.00 64 1009.6
20260505054530 51 0 0.0 0.0 0.00 0.00 0.00 63 1009.7
20260505053030 51 0 0.0 0.0 0.00 0.00 0.00 62 1009.7
20260505051530 51 0 0.0 0.0 0.00 0.00 0.00 62 1009.6
20260505041530 52 0 0.0 0.0 0.00 0.00 0.00 59 1009.2
20260505040029 52 0 0.0 1.0 0.00 0.00 0.00 58 1009.3
20260505034529 52 0 0.0 0.0 0.00 0.00 0.00 59 1009.1
20260505033035 53 0 0.0 0.0 0.00 0.00 0.00 57 1009.2
20260505031530 53 0 0.0 0.0 0.00 0.00 0.00 56 1009.3
20260505030028 54 0 0.0 0.0 0.00 0.00 0.00 55 1009.4
20260505024550 54 0 0.0 0.0 0.00 0.00 0.00 54 1009.4
20260505023038 55 0 0.0 0.0 0.00 0.00 0.00 53 1009.6
20260505021544 56 0 0.0 0.0 0.00 0.00 0.00 51 1009.6
20260505020030 56 0 0.0 0.0 0.00 0.00 0.00 50 1009.7
20260505014530 57 0 0.0 0.0 0.00 0.00 0.00 48 1009.6
20260505013029 58 0 0.0 1.0 0.00 0.00 0.00 47 1009.6
20260505011544 58 0 0.0 1.0 0.00 0.00 0.00 47 1009.5
20260505010030 59 0 0.0 1.0 0.00 0.00 0.00 46 1009.2
20260505004537 60 0 0.0 0.0 0.00 0.00 0.00 43 1009.1
20260505003028 62 0 0.0 2.0 0.00 0.00 0.00 41 1009.0